STARLINK-32901, 62895

Orbit data source: Space-Track

STARLINK-32901, 62895 is a payload satellite owned by SpaceX/Seattle (US) in LEO that was launched on Tue, 04 Feb 2025 UTC via an FALCON 9 launch vehicle from the Air Force Eastern Test Range (AFETR). Payload-class satellites include a variety of spacecraft equipped with specific instruments for various scientific and technological missions. These include communications satellites like Starlink; space stations such as the ISS; scientific satellites like the Hubble; Earth observation satellites from companies like Planet Labs, Umbra, and HawkEye 360; GPS; miniature CubeSats for education and research; and military/defense satellites.

Loading next visibility...
Identifier
62895, 2025-024S
Orbit
LEO
Country
Flag of USUS
Related business
Manufacturer
SpaceX/Seattle
Mission
Operational Commercial Communications
Bus & Motor
STARLINK V2M, Unknown motor
Mass
730 kg wet, ~700 kg dry
Launch date (UTC)
2025-02-04 (7 months ago)
Launch vehicle
FALCON 9
Launch site
Air Force Eastern Test Range (AFETR)
Object type
Payload
Rocket body
Debris
Shape & HBR
Box + 2 Pan, 14.5 m
Radar Cross Section
33.884 m², Large (>1 m²)

Expand to show TLE details & history
Last TLE update: 1 day ago

TLE from 1 day ago
0 STARLINK-32901
1 62895U 25024S   25260.32700485 -.00009236  00000-0 -32653-3 0  9991
2 62895  42.9983 224.3062 0002287 248.4078 111.6530 15.27574064 35756
Epoch: 2025-09-17T07:50Z
TLE epoch observation values (Epoch: 2025-09-17T07:50:53.219Z)
Latitude
-0°
Longitude
110.0799°
Altitude
483.421 km
Speed
7.625 km/s
True Right ascension
14h 57m 13s
True Declination
0° 00' 00"
Sunlit
Object was in daylight at epoch
Visualization orbit readout
Latitude
Unknown
Longitude
Unknown
Altitude
Unknown
Speed
Unknown
Apparent Right ascension
Unknown
Apparent Declination
Unknown
Sunlit
N/A
Visualization observer readout
Local Sidereal Time
03:36:22
Azimuth
Unknown
Elevation
Unknown
Doppler factor
Unknown
Orbital elements
Apogee altitude
486.582 km
Perigee altitude
483.443 km
Semi-major axis
6,863.149 km
Eccentricity
0.00023
Inclination
42.9983°
RAAN
224.3062°
Arg. of periapsis
248.4078°
True anomaly
111.67736°
Mean anomaly
111.653°
Eccentric anomaly
111.66518°
Mean motion
3.81731 °/min
Orbital period
94.31 mins
BSTAR
-0.00032653
Loading maneuver chart data...
Computing Atmospheric mass density...
Loading historical data...
Loading historical data...
Loading historical data...
Loading historical data...
Loading historical data...
Loading historical data...
Loading historical data...

Documentation

Showing up to 5 results
|